| time (UTC) | temp C | wind direction | speed KPH | gust KPH | rain 1hr cm | rain 24hr cm | rain mn cm | humidity % | barometer mb |
| 20260902185149 | 19 | 278 | 4.8 | 9.7 | 0.00 | 0.00 | 0.00 | 37 | 1031.9 |
| 20260902184649 | 20 | 196 | 3.2 | 11.3 | 0.00 | 0.00 | 0.00 | 38 | 1032.0 |
| 20260902184145 | 20 | 92 | 9.7 | 12.9 | 0.00 | 0.00 | 0.00 | 37 | 1031.8 |
| 20260902183640 | 20 | 8 | 1.6 | 14.5 | 0.00 | 0.00 | 0.00 | 38 | 1032.0 |
| 20260902183137 | 20 | 311 | 4.8 | 9.7 | 0.00 | 0.00 | 0.00 | 35 | 1031.8 |
| 20260902182632 | 20 | 58 | 8.0 | 12.9 | 0.00 | 0.00 | 0.00 | 37 | 1032.0 |
| 20260902182129 | 20 | 130 | 4.8 | 11.3 | 0.00 | 0.00 | 0.00 | 36 | 1032.1 |
| 20260902181625 | 21 | 92 | 11.3 | 14.5 | 0.00 | 0.00 | 0.00 | 34 | 1032.3 |
| 20260902181124 | 20 | 218 | 1.6 | 16.1 | 0.00 | 0.00 | 0.00 | 38 | 1032.1 |
| 20260902180618 | 20 | 130 | 6.4 | 6.4 | 0.00 | 0.00 | 0.00 | 36 | 1032.3 |
| 20260902180115 | 19 | 136 | 9.7 | 16.1 | 0.00 | 0.00 | 0.00 | 37 | 1032.4 |
| 20260902175614 | 20 | 3 | 11.3 | 14.5 | 0.00 | 0.00 | 0.00 | 35 | 1032.7 |
| 20260902175110 | 19 | 10 | 9.7 | 12.9 | 0.00 | 0.00 | 0.00 | 37 | 1032.7 |
| 20260902174606 | 20 | 286 | 3.2 | 11.3 | 0.00 | 0.00 | 0.00 | 36 | 1032.8 |
| 20260902174101 | 18 | 359 | 4.8 | 11.3 | 0.00 | 0.00 | 0.00 | 39 | 1032.8 |
| 20260902173555 | 19 | 57 | 9.7 | 14.5 | 0.00 | 0.00 | 0.00 | 37 | 1032.7 |
| 20260902173051 | 19 | 124 | 1.6 | 11.3 | 0.00 | 0.00 | 0.00 | 37 | 1032.5 |
| 20260902172544 | 20 | 271 | 0.0 | 11.3 | 0.00 | 0.00 | 0.00 | 38 | 1032.8 |
| 20260902172039 | 19 | 358 | 8.0 | 11.3 | 0.00 | 0.00 | 0.00 | 37 | 1032.7 |
| 20260902171535 | 18 | 158 | 4.8 | 12.9 | 0.00 | 0.00 | 0.00 | 38 | 1032.8 |
| 20260902171031 | 18 | 144 | 11.3 | 20.9 | 0.00 | 0.00 | 0.00 | 40 | 1032.9 |
| 20260902170526 | 18 | 49 | 3.2 | 17.7 | 0.00 | 0.00 | 0.00 | 40 | 1032.7 |
| 20260902170022 | 18 | 156 | 8.0 | 14.5 | 0.00 | 0.00 | 0.00 | 40 | 1032.7 |
| 20260902165516 | 18 | 83 | 9.7 | 14.5 | 0.00 | 0.00 | 0.00 | 39 | 1032.8 |
| 20260902165015 | 20 | 231 | 1.6 | 4.8 | 0.00 | 0.00 | 0.00 | 39 | 1032.7 |
| 20260902164511 | 18 | 21 | 6.4 | 6.4 | 0.00 | 0.00 | 0.00 | 38 | 1032.9 |
| 20260902164009 | 18 | 74 | 6.4 | 11.3 | 0.00 | 0.00 | 0.00 | 37 | 1032.7 |
| 20260902163506 | 18 | 26 | 12.9 | 16.1 | 0.00 | 0.00 | 0.00 | 38 | 1032.8 |
| 20260902163003 | 18 | 70 | 6.4 | 17.7 | 0.00 | 0.00 | 0.00 | 41 | 1032.8 |
| 20260902162458 | 19 | 253 | 1.6 | 3.2 | 0.00 | 0.00 | 0.00 | 39 | 1032.9 |
| 20260902161958 | 18 | 220 | 0.0 | 6.4 | 0.00 | 0.00 | 0.00 | 40 | 1032.9 |
| 20260902161448 | 18 | 182 | 6.4 | 9.7 | 0.00 | 0.00 | 0.00 | 40 | 1032.8 |
| 20260902160944 | 17 | 127 | 4.8 | 11.3 | 0.00 | 0.00 | 0.00 | 43 | 1032.8 |
| 20260902160439 | 17 | 231 | 3.2 | 9.7 | 0.00 | 0.00 | 0.00 | 45 | 1032.9 |
| 20260902155936 | 17 | 358 | 4.8 | 12.9 | 0.00 | 0.00 | 0.00 | 45 | 1032.8 |
| 20260902155433 | 17 | 194 | 0.0 | 6.4 | 0.00 | 0.00 | 0.00 | 44 | 1032.8 |
| 20260902154926 | 17 | 52 | 1.6 | 9.7 | 0.00 | 0.00 | 0.00 | 44 | 1032.9 |
| 20260902154422 | 17 | 333 | 4.8 | 14.5 | 0.00 | 0.00 | 0.00 | 45 | 1032.7 |
| 20260902153922 | 17 | 124 | 9.7 | 14.5 | 0.00 | 0.00 | 0.00 | 42 | 1032.8 |
| 20260902153420 | 17 | 248 | 3.2 | 6.4 | 0.00 | 0.00 | 0.00 | 44 | 1032.5 |
| 20260902152916 | 17 | 54 | 4.8 | 11.3 | 0.00 | 0.00 | 0.00 | 44 | 1032.7 |
| 20260902152412 | 17 | 300 | 1.6 | 6.4 | 0.00 | 0.00 | 0.00 | 45 | 1032.3 |
| 20260902151907 | 17 | 223 | 1.6 | 6.4 | 0.00 | 0.00 | 0.00 | 44 | 1032.5 |
| 20260902151402 | 17 | 59 | 4.8 | 4.8 | 0.00 | 0.00 | 0.00 | 43 | 1032.4 |
| 20260902150857 | 17 | 264 | 0.0 | 4.8 | 0.00 | 0.00 | 0.00 | 42 | 1032.4 |
| 20260902150353 | 17 | 225 | 3.2 | 6.4 | 0.00 | 0.00 | 0.00 | 43 | 1032.5 |
| 20260902145852 | 17 | 188 | 8.0 | 9.7 | 0.00 | 0.00 | 0.00 | 42 | 1032.3 |
| 20260902145348 | 16 | 127 | 4.8 | 9.7 | 0.00 | 0.00 | 0.00 | 42 | 1032.4 |
| 20260902144842 | 16 | 182 | 3.2 | 6.4 | 0.00 | 0.00 | 0.00 | 44 | 1032.3 |
| 20260902144338 | 16 | 189 | 6.4 | 9.7 | 0.00 | 0.00 | 0.00 | 42 | 1032.4 |
| 20260902143833 | 16 | 239 | 1.6 | 9.7 | 0.00 | 0.00 | 0.00 | 42 | 1032.5 |
| 20260902143327 | 16 | 204 | 4.8 | 4.8 | 0.00 | 0.00 | 0.00 | 41 | 1032.5 |
| 20260902142823 | 16 | 233 | 3.2 | 6.4 | 0.00 | 0.00 | 0.00 | 41 | 1032.7 |
| 20260902142320 | 16 | 235 | 4.8 | 9.7 | 0.00 | 0.00 | 0.00 | 42 | 1032.5 |
| 20260902141814 | 16 | 254 | 0.0 | 4.8 | 0.00 | 0.00 | 0.00 | 43 | 1032.5 |
| 20260902141310 | 15 | 200 | 1.6 | 6.4 | 0.00 | 0.00 | 0.00 | 44 | 1032.3 |
| 20260902140809 | 15 | 207 | 3.2 | 3.2 | 0.00 | 0.00 | 0.00 | 50 | 1032.1 |
| 20260902140305 | 15 | 254 | 3.2 | 11.3 | 0.00 | 0.00 | 0.00 | 44 | 1032.3 |
| 20260902135804 | 15 | 248 | 3.2 | 6.4 | 0.00 | 0.00 | 0.00 | 43 | 1032.1 |
| 20260902135300 | 15 | 240 | 0.0 | 0.0 | 0.00 | 0.00 | 0.00 | 53 | 1032.3 |
| 20260902134759 | 15 | 238 | 1.6 | 1.6 | 0.00 | 0.00 | 0.00 | 51 | 1032.3 |
| 20260902134255 | 14 | 258 | 1.6 | 12.9 | 0.00 | 0.00 | 0.00 | 47 | 1032.5 |
| 20260902133750 | 12 | 249 | 0.0 | 1.6 | 0.00 | 0.00 | 0.00 | 52 | 1032.3 |
| 20260902133249 | 12 | 240 | 1.6 | 1.6 | 0.00 | 0.00 | 0.00 | 53 | 1032.3 |
| 20260902132745 | 12 | 236 | 1.6 | 3.2 | 0.00 | 0.00 | 0.00 | 52 | 1032.1 |
| 20260902132240 | 13 | 234 | 1.6 | 3.2 | 0.00 | 0.00 | 0.00 | 50 | 1032.1 |
| 20260902131736 | 13 | 239 | 1.6 | 3.2 | 0.00 | 0.00 | 0.00 | 48 | 1032.4 |
| 20260902131232 | 13 | 206 | 6.4 | 6.4 | 0.00 | 0.00 | 0.00 | 45 | 1032.0 |
| 20260902130731 | 12 | 208 | 4.8 | 6.4 | 0.00 | 0.00 | 0.00 | 48 | 1032.3 |
| 20260902130227 | 12 | 252 | 1.6 | 6.4 | 0.00 | 0.00 | 0.00 | 46 | 1032.3 |
| 20260902125723 | 11 | 239 | 1.6 | 3.2 | 0.00 | 0.00 | 0.00 | 52 | 1032.3 |
| 20260902125219 | 11 | 234 | 1.6 | 3.2 | 0.00 | 0.00 | 0.00 | 51 | 1032.1 |
| 20260902124715 | 10 | 213 | 1.6 | 6.4 | 0.00 | 0.00 | 0.00 | 51 | 1032.0 |
| 20260902124209 | 9 | 205 | 4.8 | 6.4 | 0.00 | 0.00 | 0.00 | 51 | 1032.0 |
| 20260902123704 | 9 | 212 | 4.8 | 4.8 | 0.00 | 0.00 | 0.00 | 57 | 1031.6 |
| 20260902123201 | 10 | 197 | 4.8 | 4.8 | 0.00 | 0.00 | 0.00 | 53 | 1031.8 |
| 20260902122659 | 10 | 202 | 6.4 | 6.4 | 0.00 | 0.00 | 0.00 | 53 | 1031.9 |
| 20260902122156 | 10 | 203 | 6.4 | 6.4 | 0.00 | 0.00 | 0.00 | 53 | 1031.8 |
| 20260902121650 | 10 | 216 | 3.2 | 4.8 | 0.00 | 0.00 | 0.00 | 54 | 1031.6 |
| 20260902121144 | 10 | 212 | 4.8 | 4.8 | 0.00 | 0.00 | 0.00 | 50 | 1031.5 |
| 20260902120641 | 10 | 212 | 3.2 | 4.8 | 0.00 | 0.00 | 0.00 | 50 | 1031.8 |
| 20260902120137 | 10 | 228 | 3.2 | 4.8 | 0.00 | 0.00 | 0.00 | 51 | 1031.5 |
| 20260902115631 | 10 | 218 | 3.2 | 4.8 | 0.00 | 0.00 | 0.00 | 47 | 1031.9 |
| 20260902115127 | 11 | 225 | 4.8 | 4.8 | 0.00 | 0.00 | 0.00 | 43 | 1031.6 |
| 20260902114623 | 11 | 204 | 4.8 | 6.4 | 0.00 | 0.00 | 0.00 | 46 | 1031.9 |
| 20260902114123 | 10 | 189 | 6.4 | 9.7 | 0.00 | 0.00 | 0.00 | 48 | 1031.6 |
| 20260902113613 | 8 | 200 | 6.4 | 6.4 | 0.00 | 0.00 | 0.00 | 55 | 1031.6 |
| 20260902113108 | 9 | 205 | 4.8 | 4.8 | 0.00 | 0.00 | 0.00 | 57 | 1031.8 |
| 20260902112604 | 8 | 204 | 4.8 | 6.4 | 0.00 | 0.00 | 0.00 | 56 | 1031.6 |
| 20260902112100 | 8 | 201 | 4.8 | 4.8 | 0.00 | 0.00 | 0.00 | 61 | 1031.6 |
| 20260902111556 | 9 | 214 | 4.8 | 4.8 | 0.00 | 0.00 | 0.00 | 60 | 1031.6 |
| 20260902111051 | 10 | 209 | 4.8 | 4.8 | 0.00 | 0.00 | 0.00 | 60 | 1031.6 |
| 20260902110547 | 10 | 210 | 4.8 | 4.8 | 0.00 | 0.00 | 0.00 | 60 | 1031.6 |
| 20260902110043 | 9 | 209 | 4.8 | 6.4 | 0.00 | 0.00 | 0.00 | 61 | 1031.8 |
| 20260902105537 | 10 | 258 | 0.0 | 1.6 | 0.00 | 0.00 | 0.00 | 65 | 1031.8 |
| 20260902105032 | 10 | 207 | 4.8 | 4.8 | 0.00 | 0.00 | 0.00 | 64 | 1031.6 |
| 20260902104528 | 10 | 211 | 4.8 | 4.8 | 0.00 | 0.00 | 0.00 | 63 | 1031.8 |
| 20260902104027 | 10 | 234 | 3.2 | 4.8 | 0.00 | 0.00 | 0.00 | 60 | 1031.8 |
| 20260902103522 | 10 | 233 | 3.2 | 4.8 | 0.00 | 0.00 | 0.00 | 65 | 1031.6 |
| 20260902103018 | 10 | 214 | 3.2 | 6.4 | 0.00 | 0.00 | 0.00 | 66 | 1031.8 |
| 20260902102514 | 10 | 204 | 6.4 | 6.4 | 0.00 | 0.00 | 0.00 | 66 | 1031.8 |
| 20260902102011 | 10 | 206 | 4.8 | 6.4 | 0.00 | 0.00 | 0.00 | 69 | 1031.5 |
| 20260902101506 | 10 | 210 | 3.2 | 4.8 | 0.00 | 0.00 | 0.00 | 71 | 1031.6 |
| 20260902101004 | 10 | 218 | 3.2 | 4.8 | 0.00 | 0.00 | 0.00 | 72 | 1031.8 |
| 20260902100459 | 10 | 225 | 3.2 | 3.2 | 0.00 | 0.00 | 0.00 | 73 | 1031.8 |
| 20260902095954 | 10 | 220 | 3.2 | 3.2 | 0.00 | 0.00 | 0.00 | 74 | 1031.8 |
| 20260902095448 | 10 | 208 | 4.8 | 4.8 | 0.00 | 0.00 | 0.00 | 74 | 1031.9 |
| 20260902094948 | 10 | 207 | 4.8 | 4.8 | 0.00 | 0.00 | 0.00 | 74 | 1031.6 |
| 20260902094443 | 10 | 211 | 4.8 | 4.8 | 0.00 | 0.00 | 0.00 | 74 | 1031.8 |
| 20260902093938 | 10 | 204 | 4.8 | 4.8 | 0.00 | 0.00 | 0.00 | 73 | 1031.8 |
| 20260902093433 | 10 | 207 | 4.8 | 4.8 | 0.00 | 0.00 | 0.00 | 71 | 1031.9 |
| 20260902092932 | 10 | 211 | 4.8 | 4.8 | 0.00 | 0.00 | 0.00 | 71 | 1031.9 |
| 20260902092428 | 10 | 207 | 4.8 | 4.8 | 0.00 | 0.00 | 0.00 | 70 | 1031.9 |
| 20260902091928 | 11 | 204 | 4.8 | 4.8 | 0.00 | 0.00 | 0.00 | 69 | 1032.0 |
| 20260902091423 | 11 | 208 | 4.8 | 6.4 | 0.00 | 0.00 | 0.00 | 69 | 1031.9 |
| 20260902090919 | 11 | 208 | 6.4 | 6.4 | 0.00 | 0.00 | 0.00 | 68 | 1031.8 |
| 20260902090414 | 11 | 199 | 4.8 | 6.4 | 0.00 | 0.00 | 0.00 | 68 | 1031.9 |
| 20260902085913 | 11 | 208 | 4.8 | 4.8 | 0.00 | 0.00 | 0.00 | 69 | 1032.1 |
| 20260902085408 | 11 | 218 | 3.2 | 4.8 | 0.00 | 0.00 | 0.00 | 69 | 1032.0 |
| 20260902084903 | 10 | 201 | 3.2 | 4.8 | 0.00 | 0.00 | 0.00 | 69 | 1031.8 |
| 20260902084400 | 10 | 204 | 4.8 | 4.8 | 0.00 | 0.00 | 0.00 | 70 | 1032.1 |
| 20260902083855 | 10 | 203 | 4.8 | 4.8 | 0.00 | 0.00 | 0.00 | 70 | 1032.0 |
| 20260902083355 | 10 | 206 | 4.8 | 6.4 | 0.00 | 0.00 | 0.00 | 70 | 1032.0 |
| 20260902082850 | 10 | 208 | 4.8 | 4.8 | 0.00 | 0.00 | 0.00 | 71 | 1031.9 |
| 20260902082346 | 10 | 205 | 4.8 | 4.8 | 0.00 | 0.00 | 0.00 | 70 | 1032.0 |
| 20260902081843 | 10 | 202 | 4.8 | 6.4 | 0.00 | 0.00 | 0.00 | 68 | 1031.8 |
| 20260902081338 | 10 | 211 | 3.2 | 6.4 | 0.00 | 0.00 | 0.00 | 68 | 1031.9 |
| 20260902080833 | 10 | 204 | 4.8 | 4.8 | 0.00 | 0.00 | 0.00 | 69 | 1032.1 |
| 20260902080330 | 11 | 205 | 4.8 | 4.8 | 0.00 | 0.00 | 0.00 | 69 | 1032.1 |
| 20260902075828 | 11 | 214 | 4.8 | 4.8 | 0.00 | 0.00 | 0.00 | 68 | 1032.1 |
| 20260902075325 | 11 | 206 | 4.8 | 4.8 | 0.00 | 0.00 | 0.00 | 68 | 1032.5 |
| 20260902074820 | 11 | 201 | 6.4 | 6.4 | 0.00 | 0.00 | 0.00 | 67 | 1032.4 |
| 20260902074315 | 11 | 210 | 4.8 | 4.8 | 0.00 | 0.00 | 0.00 | 66 | 1032.3 |
| 20260902073810 | 11 | 202 | 4.8 | 6.4 | 0.00 | 0.00 | 0.00 | 66 | 1032.0 |
| 20260902073306 | 11 | 200 | 4.8 | 4.8 | 0.00 | 0.00 | 0.00 | 66 | 1032.1 |
| 20260902072803 | 11 | 212 | 4.8 | 4.8 | 0.00 | 0.00 | 0.00 | 66 | 1032.0 |
| 20260902072257 | 11 | 207 | 4.8 | 4.8 | 0.00 | 0.00 | 0.00 | 66 | 1032.0 |
| 20260902071754 | 11 | 209 | 4.8 | 4.8 | 0.00 | 0.00 | 0.00 | 66 | 1032.3 |
| 20260902071249 | 11 | 208 | 4.8 | 4.8 | 0.00 | 0.00 | 0.00 | 66 | 1032.0 |
| 20260902070745 | 11 | 206 | 4.8 | 6.4 | 0.00 | 0.00 | 0.00 | 65 | 1032.3 |
| 20260902070245 | 11 | 202 | 6.4 | 6.4 | 0.00 | 0.00 | 0.00 | 66 | 1032.1 |
| 20260902065743 | 11 | 201 | 4.8 | 6.4 | 0.00 | 0.00 | 0.00 | 66 | 1032.0 |
| 20260902065239 | 11 | 208 | 4.8 | 4.8 | 0.00 | 0.00 | 0.00 | 68 | 1032.0 |
| 20260902064734 | 11 | 208 | 4.8 | 4.8 | 0.00 | 0.00 | 0.00 | 68 | 1032.1 |
| 20260902064230 | 11 | 208 | 4.8 | 4.8 | 0.00 | 0.00 | 0.00 | 67 | 1032.3 |
| 20260902063726 | 10 | 213 | 4.8 | 4.8 | 0.00 | 0.00 | 0.00 | 67 | 1032.0 |
| 20260902063226 | 11 | 209 | 4.8 | 4.8 | 0.00 | 0.00 | 0.00 | 68 | 1032.3 |
| 20260902062720 | 11 | 204 | 4.8 | 4.8 | 0.00 | 0.00 | 0.00 | 68 | 1032.0 |
| 20260902062215 | 11 | 206 | 4.8 | 4.8 | 0.00 | 0.00 | 0.00 | 68 | 1032.4 |
| 20260902061714 | 11 | 205 | 4.8 | 4.8 | 0.00 | 0.00 | 0.00 | 68 | 1032.1 |
| 20260902061209 | 11 | 211 | 4.8 | 4.8 | 0.00 | 0.00 | 0.00 | 67 | 1032.1 |
| 20260902060706 | 11 | 208 | 4.8 | 4.8 | 0.00 | 0.00 | 0.00 | 67 | 1032.3 |
| 20260902060202 | 11 | 211 | 4.8 | 4.8 | 0.00 | 0.00 | 0.00 | 67 | 1032.1 |
| 20260902055657 | 11 | 212 | 4.8 | 4.8 | 0.00 | 0.13 | 0.13 | 67 | 1032.1 |
| 20260902055153 | 11 | 212 | 4.8 | 4.8 | 0.00 | 0.13 | 0.13 | 67 | 1032.3 |
| 20260902054648 | 11 | 212 | 4.8 | 4.8 | 0.00 | 0.13 | 0.13 | 68 | 1032.4 |
| 20260902054143 | 11 | 215 | 4.8 | 4.8 | 0.00 | 0.13 | 0.13 | 69 | 1032.4 |
| 20260902053633 | 11 | 207 | 4.8 | 4.8 | 0.00 | 0.13 | 0.13 | 67 | 1032.4 |
| 20260902053132 | 10 | 208 | 4.8 | 4.8 | 0.00 | 0.13 | 0.13 | 68 | 1032.3 |
| 20260902052627 | 10 | 208 | 4.8 | 4.8 | 0.00 | 0.13 | 0.13 | 70 | 1032.1 |
| 20260902052123 | 10 | 206 | 4.8 | 4.8 | 0.00 | 0.13 | 0.13 | 71 | 1032.1 |
| 20260902051622 | 11 | 209 | 4.8 | 4.8 | 0.00 | 0.13 | 0.13 | 69 | 1032.3 |
| 20260902051121 | 11 | 213 | 3.2 | 3.2 | 0.00 | 0.13 | 0.13 | 70 | 1032.3 |
| 20260902050616 | 11 | 209 | 4.8 | 4.8 | 0.00 | 0.13 | 0.13 | 69 | 1032.4 |
| 20260902050111 | 11 | 211 | 4.8 | 4.8 | 0.00 | 0.13 | 0.13 | 70 | 1032.1 |
| 20260902045607 | 11 | 208 | 4.8 | 4.8 | 0.00 | 0.13 | 0.13 | 69 | 1032.3 |
| 20260902045103 | 11 | 211 | 4.8 | 4.8 | 0.00 | 0.13 | 0.13 | 68 | 1032.4 |
| 20260902044602 | 11 | 222 | 3.2 | 4.8 | 0.00 | 0.13 | 0.13 | 69 | 1032.4 |
| 20260902044058 | 11 | 205 | 4.8 | 4.8 | 0.00 | 0.13 | 0.13 | 68 | 1032.4 |
| 20260902043548 | 11 | 216 | 3.2 | 4.8 | 0.00 | 0.13 | 0.13 | 68 | 1032.4 |
| 20260902043042 | 11 | 231 | 3.2 | 3.2 | 0.00 | 0.13 | 0.13 | 67 | 1032.7 |
| 20260902042536 | 12 | 224 | 3.2 | 3.2 | 0.00 | 0.13 | 0.13 | 66 | 1032.5 |
| 20260902042031 | 12 | 237 | 1.6 | 3.2 | 0.00 | 0.13 | 0.13 | 67 | 1032.7 |
| 20260902041525 | 12 | 234 | 3.2 | 3.2 | 0.00 | 0.13 | 0.13 | 67 | 1032.7 |
| 20260902041020 | 12 | 252 | 0.0 | 1.6 | 0.00 | 0.13 | 0.13 | 66 | 1032.7 |
| 20260902040514 | 11 | 255 | 0.0 | 1.6 | 0.00 | 0.13 | 0.13 | 66 | 1032.8 |
| 20260902040009 | 11 | 225 | 1.6 | 4.8 | 0.00 | 0.13 | 0.13 | 68 | 1032.3 |
| 20260902035503 | 11 | 215 | 4.8 | 4.8 | 0.00 | 0.13 | 0.13 | 69 | 1032.3 |
| 20260902035002 | 11 | 207 | 3.2 | 3.2 | 0.00 | 0.13 | 0.13 | 71 | 1032.5 |
| 20260902034457 | 11 | 208 | 4.8 | 4.8 | 0.00 | 0.13 | 0.13 | 71 | 1032.8 |
| 20260902033951 | 11 | 206 | 3.2 | 4.8 | 0.00 | 0.13 | 0.13 | 72 | 1032.5 |
| 20260902033450 | 11 | 215 | 3.2 | 4.8 | 0.00 | 0.13 | 0.13 | 70 | 1032.4 |
| 20260902032949 | 11 | 204 | 3.2 | 4.8 | 0.00 | 0.13 | 0.13 | 70 | 1032.5 |
| 20260902032444 | 11 | 212 | 3.2 | 4.8 | 0.00 | 0.13 | 0.13 | 69 | 1032.5 |
| 20260902031938 | 11 | 210 | 4.8 | 4.8 | 0.00 | 0.13 | 0.13 | 70 | 1032.8 |
| 20260902031428 | 11 | 212 | 4.8 | 4.8 | 0.00 | 0.13 | 0.13 | 68 | 1032.7 |
| 20260902030924 | 12 | 230 | 3.2 | 3.2 | 0.00 | 0.13 | 0.13 | 70 | 1032.4 |
| 20260902030419 | 12 | 228 | 3.2 | 3.2 | 0.00 | 0.13 | 0.13 | 69 | 1032.7 |
| 20260902025917 | 12 | 223 | 3.2 | 4.8 | 0.00 | 0.13 | 0.13 | 68 | 1032.3 |
| 20260902025413 | 12 | 216 | 3.2 | 4.8 | 0.00 | 0.13 | 0.13 | 66 | 1032.5 |
| 20260902024908 | 12 | 228 | 3.2 | 3.2 | 0.00 | 0.13 | 0.13 | 64 | 1032.4 |
| 20260902024403 | 12 | 218 | 3.2 | 3.2 | 0.00 | 0.13 | 0.13 | 66 | 1032.3 |
| 20260902023859 | 12 | 218 | 4.8 | 4.8 | 0.00 | 0.13 | 0.13 | 68 | 1032.1 |
| 20260902023354 | 12 | 207 | 4.8 | 4.8 | 0.00 | 0.13 | 0.13 | 67 | 1032.3 |
| 20260902022853 | 12 | 199 | 4.8 | 4.8 | 0.00 | 0.13 | 0.13 | 67 | 1032.1 |
| 20260902022348 | 12 | 210 | 4.8 | 4.8 | 0.00 | 0.13 | 0.13 | 68 | 1031.9 |
| 20260902021844 | 12 | 212 | 3.2 | 4.8 | 0.00 | 0.13 | 0.13 | 69 | 1031.8 |
| 20260902021339 | 12 | 213 | 3.2 | 4.8 | 0.00 | 0.13 | 0.13 | 68 | 1031.9 |
| 20260902020834 | 12 | 217 | 3.2 | 3.2 | 0.00 | 0.13 | 0.13 | 67 | 1031.8 |
| 20260902020331 | 12 | 221 | 3.2 | 3.2 | 0.00 | 0.13 | 0.13 | 67 | 1032.0 |
| 20260902015826 | 12 | 223 | 3.2 | 4.8 | 0.00 | 0.13 | 0.13 | 67 | 1031.6 |
| 20260902015322 | 12 | 212 | 3.2 | 4.8 | 0.00 | 0.13 | 0.13 | 66 | 1031.8 |
| 20260902014817 | 12 | 216 | 3.2 | 4.8 | 0.00 | 0.13 | 0.13 | 66 | 1031.6 |
| 20260902014314 | 12 | 213 | 3.2 | 4.8 | 0.00 | 0.13 | 0.13 | 67 | 1031.5 |
| 20260902013812 | 12 | 208 | 4.8 | 4.8 | 0.00 | 0.13 | 0.13 | 66 | 1031.8 |
| 20260902013308 | 13 | 211 | 4.8 | 4.8 | 0.00 | 0.13 | 0.13 | 68 | 1031.6 |
| 20260902012803 | 13 | 216 | 3.2 | 4.8 | 0.00 | 0.13 | 0.13 | 67 | 1031.6 |
| 20260902012259 | 13 | 220 | 3.2 | 3.2 | 0.00 | 0.13 | 0.13 | 70 | 1031.6 |
| 20260902011754 | 13 | 212 | 3.2 | 4.8 | 0.00 | 0.13 | 0.13 | 71 | 1031.8 |
| 20260902011254 | 13 | 220 | 3.2 | 3.2 | 0.00 | 0.13 | 0.13 | 67 | 1031.9 |
| 20260902010748 | 13 | 224 | 3.2 | 3.2 | 0.00 | 0.13 | 0.13 | 70 | 1032.0 |
| 20260902010244 | 13 | 219 | 3.2 | 3.2 | 0.00 | 0.13 | 0.13 | 71 | 1031.8 |
| 20260902005742 | 13 | 221 | 3.2 | 3.2 | 0.00 | 0.13 | 0.13 | 72 | 1032.0 |
| 20260902005238 | 13 | 224 | 3.2 | 4.8 | 0.00 | 0.13 | 0.13 | 79 | 1031.8 |
| 20260902004737 | 13 | 218 | 3.2 | 3.2 | 0.00 | 0.13 | 0.13 | 78 | 1031.8 |
| 20260902004232 | 12 | 211 | 4.8 | 4.8 | 0.00 | 0.13 | 0.13 | 78 | 1031.9 |
| 20260902003727 | 13 | 233 | 3.2 | 3.2 | 0.00 | 0.13 | 0.13 | 82 | 1031.9 |
| 20260902003223 | 13 | 237 | 1.6 | 3.2 | 0.00 | 0.13 | 0.13 | 85 | 1032.1 |
| 20260902002718 | 13 | 227 | 3.2 | 3.2 | 0.00 | 0.13 | 0.13 | 86 | 1031.6 |
| 20260902002218 | 15 | 228 | 3.2 | 3.2 | 0.00 | 0.13 | 0.13 | 78 | 1031.8 |
| 20260902001713 | 16 | 240 | 1.6 | 1.6 | 0.00 | 0.13 | 0.13 | 66 | 1031.8 |
| 20260902001208 | 17 | 248 | 1.6 | 1.6 | 0.00 | 0.13 | 0.13 | 56 | 1031.9 |
| 20260902000703 | 17 | 254 | 0.0 | 0.0 | 0.00 | 0.13 | 0.13 | 56 | 1032.0 |
| 20260902000158 | 17 | 271 | 0.0 | 0.0 | 0.00 | 0.13 | 0.13 | 50 | 1031.6 |
| 20260901235657 | 17 | 261 | 0.0 | 0.0 | 0.00 | 0.13 | 0.13 | 52 | 1031.9 |
| 20260901235153 | 17 | 250 | 0.0 | 3.2 | 0.00 | 0.13 | 0.13 | 49 | 1031.8 |
| 20260901234652 | 17 | 257 | 0.0 | 0.0 | 0.00 | 0.13 | 0.13 | 51 | 1031.8 |
| 20260901234147 | 17 | 285 | 1.6 | 1.6 | 0.00 | 0.13 | 0.13 | 50 | 1031.9 |
| 20260901233642 | 17 | 275 | 0.0 | 1.6 | 0.00 | 0.13 | 0.13 | 51 | 1031.9 |
| 20260901233138 | 17 | 248 | 0.0 | 0.0 | 0.00 | 0.13 | 0.13 | 51 | 1031.8 |
| 20260901232638 | 17 | 267 | 0.0 | 3.2 | 0.00 | 0.13 | 0.13 | 53 | 1031.8 |
| 20260901232133 | 17 | 253 | 0.0 | 1.6 | 0.00 | 0.13 | 0.13 | 51 | 1031.6 |
| 20260901231630 | 17 | 266 | 1.6 | 4.8 | 0.00 | 0.13 | 0.13 | 57 | 1031.8 |
| 20260901231126 | 17 | 307 | 4.8 | 4.8 | 0.00 | 0.13 | 0.13 | 49 | 1031.9 |
| 20260901230621 | 17 | 338 | 0.0 | 6.4 | 0.00 | 0.13 | 0.13 | 49 | 1031.8 |
| 20260901230121 | 17 | 67 | 3.2 | 12.9 | 0.00 | 0.13 | 0.13 | 49 | 1031.8 |
| 20260901225616 | 18 | 25 | 4.8 | 9.7 | 0.00 | 0.13 | 0.13 | 48 | 1031.5 |
| 20260901225116 | 18 | 242 | 0.0 | 4.8 | 0.00 | 0.13 | 0.13 | 46 | 1031.5 |
| 20260901224612 | 19 | 263 | 0.0 | 6.4 | 0.00 | 0.13 | 0.13 | 41 | 1031.8 |
| 20260901224108 | 19 | 256 | 1.6 | 3.2 | 0.00 | 0.13 | 0.13 | 42 | 1031.8 |
| 20260901223603 | 18 | 324 | 1.6 | 4.8 | 0.00 | 0.13 | 0.13 | 42 | 1031.8 |
| 20260901223058 | 17 | 331 | 1.6 | 4.8 | 0.00 | 0.13 | 0.13 | 46 | 1031.6 |
| 20260901222554 | 17 | 276 | 1.6 | 4.8 | 0.00 | 0.13 | 0.13 | 46 | 1031.5 |
| 20260901222050 | 17 | 49 | 3.2 | 6.4 | 0.00 | 0.13 | 0.13 | 47 | 1031.6 |
| 20260901221546 | 17 | 267 | 1.6 | 4.8 | 0.00 | 0.13 | 0.13 | 45 | 1031.9 |
| 20260901221041 | 17 | 272 | 0.0 | 4.8 | 0.00 | 0.13 | 0.13 | 46 | 1031.6 |
| 20260901220541 | 17 | 332 | 0.0 | 4.8 | 0.00 | 0.13 | 0.13 | 46 | 1032.1 |
| 20260901220040 | 17 | 351 | 3.2 | 12.9 | 0.00 | 0.13 | 0.13 | 46 | 1031.8 |
| 20260901215538 | 17 | 10 | 6.4 | 11.3 | 0.00 | 0.13 | 0.13 | 44 | 1031.9 |
| 20260901215032 | 18 | 302 | 8.0 | 12.9 | 0.00 | 0.13 | 0.13 | 44 | 1032.0 |
| 20260901214531 | 18 | 283 | 6.4 | 12.9 | 0.00 | 0.13 | 0.13 | 44 | 1032.3 |
| 20260901214026 | 17 | 348 | 6.4 | 6.4 | 0.00 | 0.13 | 0.13 | 45 | 1032.0 |
| 20260901213525 | 18 | 10 | 3.2 | 4.8 | 0.00 | 0.13 | 0.13 | 44 | 1032.1 |
| 20260901213020 | 18 | 307 | 4.8 | 11.3 | 0.00 | 0.13 | 0.13 | 44 | 1032.0 |
| 20260901212520 | 18 | 318 | 3.2 | 9.7 | 0.00 | 0.13 | 0.13 | 46 | 1032.3 |
| 20260901212017 | 18 | 260 | 1.6 | 1.6 | 0.00 | 0.13 | 0.13 | 43 | 1032.3 |
| 20260901211511 | 18 | 340 | 14.5 | 22.5 | 0.00 | 0.13 | 0.13 | 43 | 1032.3 |
| 20260901211008 | 18 | 317 | 14.5 | 20.9 | 0.00 | 0.13 | 0.13 | 44 | 1032.0 |
| 20260901210503 | 18 | 3 | 14.5 | 20.9 | 0.00 | 0.13 | 0.13 | 44 | 1032.1 |
| 20260901205959 | 19 | 294 | 14.5 | 20.9 | 0.00 | 0.13 | 0.13 | 43 | 1032.0 |
| 20260901205454 | 18 | 327 | 11.3 | 20.9 | 0.00 | 0.13 | 0.13 | 44 | 1032.4 |
| 20260901204948 | 17 | 303 | 8.0 | 14.5 | 0.00 | 0.13 | 0.13 | 49 | 1032.3 |
| 20260901204446 | 18 | 346 | 8.0 | 9.7 | 0.00 | 0.13 | 0.13 | 47 | 1032.3 |
| 20260901203944 | 18 | 330 | 4.8 | 9.7 | 0.00 | 0.13 | 0.13 | 50 | 1032.3 |
| 20260901203434 | 19 | 299 | 1.6 | 3.2 | 0.00 | 0.13 | 0.13 | 44 | 1032.1 |
| 20260901202929 | 19 | 275 | 4.8 | 9.7 | 0.00 | 0.13 | 0.13 | 38 | 1032.5 |
| 20260901202424 | 20 | 337 | 4.8 | 11.3 | 0.00 | 0.13 | 0.13 | 38 | 1032.3 |
| 20260901201920 | 21 | 340 | 3.2 | 11.3 | 0.00 | 0.13 | 0.13 | 33 | 1032.4 |
| 20260901201414 | 21 | 333 | 1.6 | 9.7 | 0.00 | 0.13 | 0.13 | 34 | 1032.5 |
| 20260901200908 | 20 | 260 | 6.4 | 9.7 | 0.00 | 0.13 | 0.13 | 34 | 1032.5 |
| 20260901200403 | 20 | 148 | 16.1 | 20.9 | 0.00 | 0.13 | 0.13 | 34 | 1032.0 |
| 20260901195902 | 20 | 49 | 6.4 | 11.3 | 0.00 | 0.13 | 0.13 | 37 | 1032.1 |
| 20260901195355 | 20 | 330 | 4.8 | 11.3 | 0.00 | 0.13 | 0.13 | 37 | 1032.5 |
| 20260901194850 | 20 | 241 | 6.4 | 12.9 | 0.00 | 0.13 | 0.13 | 35 | 1032.3 |
| 20260901194344 | 20 | 228 | 3.2 | 11.3 | 0.00 | 0.13 | 0.13 | 37 | 1032.4 |
| 20260901193842 | 20 | 112 | 6.4 | 22.5 | 0.00 | 0.13 | 0.13 | 37 | 1032.4 |
| 20260901193340 | 21 | 224 | 8.0 | 14.5 | 0.00 | 0.13 | 0.13 | 35 | 1032.7 |
| 20260901192835 | 20 | 351 | 4.8 | 12.9 | 0.00 | 0.13 | 0.13 | 38 | 1032.5 |
| 20260901192330 | 19 | 323 | 4.8 | 9.7 | 0.00 | 0.13 | 0.13 | 41 | 1032.1 |
| 20260901191826 | 19 | 330 | 14.5 | 16.1 | 0.00 | 0.13 | 0.13 | 37 | 1032.4 |
| 20260901191321 | 20 | 16 | 6.4 | 12.9 | 0.00 | 0.13 | 0.13 | 39 | 1032.3 |
| 20260901190817 | 20 | 287 | 3.2 | 17.7 | 0.00 | 0.13 | 0.13 | 38 | 1032.4 |
| 20260901190311 | 19 | 311 | 8.0 | 12.9 | 0.00 | 0.13 | 0.13 | 42 | 1032.7 |
| 20260901185810 | 20 | 320 | 14.5 | 22.5 | 0.00 | 0.13 | 0.13 | 41 | 1032.8 |
| 20260901185309 | 20 | 246 | 4.8 | 16.1 | 0.00 | 0.13 | 0.13 | 38 | 1032.8 |